SITRO-AIS 26

Last updated on Wed Oct 29 2025 00:03:53 GMT+0000 (Coordinated Universal Time)

1 59067U 24039S 25301.68328269 .00005368 00000+0 43976-3 0 9993 2 59067 95.3924 76.1615 0153253 56.9923 304.5921 14.90678032 90193
UTC large
Height (km)
Speed (km/s)
/
Latitude / Longitude
Inclination (degrees)
Orbital Period (minutes)
Azimuth
Elevation
Range (km)
Doppler Factor

Next 0 passes for location: London (51.5072 / 0.1276)

Sorry there are no passes over London.